[[{"header":{"parameterUnit":"m.s-1","parameterCategory":1,"la1":30.2991,"la2":30.254,"lo1":-89.0895,"lo2":-89.0444,"dy":0.0017,"dx":0.0017,"nx":28,"ny":28,"refTime":"2025-03-30T21:00:00:Z","depth":0,"parameterNumber":2,"parameterNumberName":"U-component_of_WINDS"},"data":[0,0,0,0,0,0,0,0,0,0,0,0,0,0,0,0,0,0,0,0,0,0,0,0,0,0,0,0,0,0,0,0,0,0,0,0,0,0,0,0,0,0,0,0,0,0,0,0,0,0,0,0,0,0,0,0,0,0,-2.5439,-2.5438,0,-2.5405,-2.5404,-2.5404,-2.5344,-2.5343,-2.5342,-2.5341,-2.5307,-2.5307,-2.5307,0,0,0,0,0,0,0,0,0,0,0,0,0,-2.5453,-2.5453,-2.5439,-2.5438,-2.5438,-2.5405,-2.5404,-2.5404,-2.5344,-2.5343,-2.5342,-2.534,-2.5307,-2.5307,-2.5307,0,0,0,0,0,0,0,0,0,0,0,0,0,-2.5436,-2.5453,-2.5439,-2.5404,-2.5401,-2.5405,-2.5404,-2.5404,-2.5345,-2.5343,-2.5341,-2.534,-2.5307,-2.5307,-2.5307,-2.5343,0,0,-2.5308,-2.5308,0,0,0,0,0,0,0,0,-2.5437,-2.5435,-2.541,-2.5406,-2.5403,-2.5377,-2.5397,-2.5383,-2.5345,-2.5366,-2.5341,-2.5339,-2.5332,-2.533,-2.5327,-2.5341,-2.534,-2.5308,-2.5308,-2.5308,-2.5308,0,0,0,0,0,0,0,-2.5438,-2.5436,-2.5425,-2.5409,-2.5405,-2.5391,-2.5386,-2.5394,-2.5359,-2.5364,-2.536,-2.5356,-2.5329,-2.5327,-2.5326,-2.5339,-2.5308,-2.5308,-2.5308,-2.5309,-2.538,-2.5382,0,0,0,0,0,0,-2.5444,-2.5438,-2.5426,-2.5424,-2.5416,-2.5392,-2.5387,-2.5387,-2.5359,-2.5353,-2.5358,-2.5354,-2.5328,-2.5326,-2.5325,-2.5363,-2.5308,-2.5309,-2.5309,-2.5379,-2.5381,-2.5383,0,0,0,0,0,0,-2.5444,-2.5443,-2.5428,-2.543,-2.5427,-2.5393,-2.5394,-2.5387,-2.5385,-2.5354,-2.5347,-2.5362,-2.5326,-2.5324,-2.5339,-2.5361,-2.5309,-2.5309,-2.5377,-2.5379,-2.5382,-2.5441,0,0,0,0,0,0,-2.5445,-2.5444,-2.5457,-2.543,-2.5427,-2.5442,-2.5395,-2.5388,-2.5385,-2.5379,-2.5356,-2.535,-2.5325,-2.5339,-2.5339,-2.536,-2.5309,-2.5374,-2.5378,-2.5381,-2.5437,-2.5446,-2.5453,0,0,0,0,0,-2.5446,-2.5475,-2.5458,-2.5457,-2.5442,-2.5443,-2.5441,-2.5411,-2.5387,-2.54,-2.538,-2.5351,-2.5359,-2.5341,-2.534,-2.5362,-2.5373,-2.5377,-2.5381,-2.5433,-2.5444,-2.5453,0,0,0,0,0,0,-2.5505,-2.5471,-2.5451,-2.5473,-2.5462,-2.5433,-2.5448,-2.5423,-2.5418,-2.5413,-2.5376,-2.5371,-2.539,-2.5378,-2.5358,-2.5395,-2.5361,-2.5366,-2.5402,-2.5411,-2.5419,-2.542,-2.5309,0,0,0,0,0,-2.5521,-2.5524,-2.5495,-2.5517,-2.5512,-2.5482,-2.5481,-2.5459,-2.5445,-2.544,-2.5422,-2.541,-2.541,-2.541,-2.5409,-2.5436,-2.5429,-2.5451,-2.5459,-2.5466,-2.5469,-2.5482,-2.549,-2.5396,-2.5396,-2.5396,0,0,-2.5553,-2.5535,-2.5539,-2.5528,-2.5517,-2.5521,-2.5478,-2.5485,-2.5488,-2.5441,-2.5453,-2.544,-2.5424,-2.5445,-2.5453,-2.5435,-2.5494,-2.5471,-2.5477,-2.5476,-2.5487,-2.5496,-2.5504,-2.5399,-2.5398,-2.5398,0,0,-2.5613,-2.56,-2.5616,-2.5606,-2.5589,-2.5569,-2.5573,-2.5549,-2.5538,-2.555,-2.5515,-2.5519,-2.5519,-2.5509,-2.5505,-2.5563,-2.5535,-2.5564,-2.5604,-2.5617,-2.5624,-2.563,-2.5649,-2.5657,-2.5568,-2.5568,-2.5568,0,-2.5654,-2.5659,-2.5628,-2.5637,-2.5633,-2.5592,-2.5608,-2.56,-2.5584,-2.5582,-2.5563,-2.5563,-2.555,-2.5567,-2.5581,-2.558,-2.5582,-2.5565,-2.5626,-2.5632,-2.5637,-2.5655,-2.5662,-2.5571,-2.5571,-2.557,-2.557,0,-2.5711,-2.5716,-2.5731,-2.5716,-2.5714,-2.5727,-2.5697,-2.5699,-2.5678,-2.566,-2.5672,-2.5656,-2.5649,-2.5653,-2.5632,-2.5667,-2.5656,-2.5632,-2.5597,-2.565,-2.5666,-2.5673,-2.5576,-2.5575,-2.5574,-2.5573,0,0,-2.5804,-2.5773,-2.5779,-2.5771,-2.5751,-2.5753,-2.5765,-2.5759,-2.5761,-2.5752,-2.576,-2.5762,-2.5739,-2.5734,-2.5713,-2.5724,-2.5769,-2.5698,-2.5697,-2.571,-2.5805,-2.5822,-2.583,-2.5753,-2.5754,-2.5755,-2.5806,0,-2.5858,-2.5874,-2.5847,-2.587,-2.5873,-2.5835,-2.5845,-2.5834,-2.5818,-2.5819,-2.5802,-2.5803,-2.5774,-2.577,-2.5781,-2.5762,-2.5788,-2.5758,-2.5758,-2.5758,-2.576,-2.5839,-2.5856,-2.5905,-2.5812,-2.5813,-2.5814,0,-2.5922,-2.5916,-2.5939,-2.5917,-2.5917,-2.5926,-2.5918,-2.592,-2.5907,-2.5895,-2.5889,-2.5864,-2.5874,-2.5842,-2.5854,-2.5835,-2.5834,-2.5825,-2.5826,-2.5823,-2.5787,-2.5835,-2.592,-2.5926,-2.5824,-2.5823,-2.5822,0,-2.5985,-2.5983,-2.5996,-2.5991,-2.5967,-2.5974,-2.5964,-2.5949,-2.5947,-2.5941,-2.5939,-2.5935,-2.5932,-2.5929,-2.5903,-2.5883,-2.5918,-2.5884,-2.5907,-2.5907,-2.5913,-2.5913,-2.5997,-2.5918,-2.5917,-2.5917,-2.5917,0,-2.6046,-2.6061,-2.6024,-2.6032,-2.6048,-2.6017,-2.6034,-2.602,-2.6008,-2.6012,-2.5981,-2.5986,-2.5953,-2.5954,-2.5935,-2.5947,-2.5947,-2.5936,-2.593,-2.5937,-2.5938,-2.5934,-2.5929,-2.5919,-2.5919,-2.5918,-2.5918,0,-2.6118,-2.6094,-2.6105,-2.6081,-2.6076,-2.6088,-2.6068,-2.6074,-2.6058,-2.6064,-2.6064,-2.6037,-2.6037,-2.6012,-2.6007,-2.5994,-2.6014,-2.6003,-2.6018,-2.6013,-2.6036,-2.6034,-2.6118,-2.6127,-2.6045,-2.6046,-2.6046,0,-2.6156,-2.6167,-2.6145,-2.6145,-2.6137,-2.6139,-2.6137,-2.6108,-2.6108,-2.6094,-2.6102,-2.61,-2.6096,-2.6099,-2.6078,-2.6075,-2.6062,-2.6092,-2.6061,-2.6068,-2.606,-2.6058,-2.6058,-2.6098,-2.6099,-2.61,-2.61,0,-2.6228,-2.6215,-2.6213,-2.6208,-2.6206,-2.6201,-2.6193,-2.6196,-2.6164,-2.6165,-2.6165,-2.6162,-2.6158,-2.6156,-2.6149,-2.6139,-2.6114,-2.6111,-2.6115,-2.6121,-2.6128,-2.6122,-2.6033,-2.6108,-2.6107,-2.6107,-2.6106,-2.6106,-2.6282,-2.6289,-2.6275,-2.6274,-2.6265,-2.6259,-2.6264,-2.6248,-2.6247,-2.624,-2.6224,-2.6227,-2.6214,-2.6202,-2.6194,-2.6196,-2.6181,-2.6188,-2.6189,-2.619,-2.6194,-2.6131,-2.6195,-2.6194,-2.6194,-2.6194,-2.6194,0,-2.6349,-2.6339,-2.6338,-2.6328,-2.6328,-2.6306,-2.6297,-2.6298,-2.63,-2.629,-2.6288,-2.6288,-2.6286,-2.6267,-2.6262,-2.6267,-2.6256,-2.6267,-2.6265,-2.6263,-2.6209,-2.6204,-2.6276,-2.6276,-2.6276,-2.6276,-2.6276,-2.6276,-2.6384,-2.6395,-2.6382,-2.6388,-2.6377,-2.6379,-2.6376,-2.637,-2.6361,-2.6363,-2.6361,-2.6349,-2.6335,-2.633,-2.6327,-2.6322,-2.6321,-2.6335,-2.6325,-2.6275,-2.6267,-2.6259,-2.6254,-2.6336,-2.6336,-2.6379,-2.6379,-2.638]},{"header":{"parameterUnit":"m.s-1","parameterCategory":1,"la1":30.2991,"la2":30.254,"lo1":-89.0895,"lo2":-89.0444,"dy":0.0017,"dx":0.0017,"nx":28,"ny":28,"refTime":"2025-03-30T21:00:00:Z","depth":0,"parameterNumber":3,"parameterNumberName":"V-component_of_WINDS"},"data":[0,0,0,0,0,0,0,0,0,0,0,0,0,0,0,0,0,0,0,0,0,0,0,0,0,0,0,0,0,0,0,0,0,0,0,0,0,0,0,0,0,0,0,0,0,0,0,0,0,0,0,0,0,0,0,0,0,0,0.1911,0.1911,0,0.191,0.191,0.191,0.1912,0.1913,0.1913,0.1913,0.191,0.191,0.191,0,0,0,0,0,0,0,0,0,0,0,0,0,0.1917,0.1917,0.1911,0.1911,0.1911,0.191,0.191,0.191,0.1912,0.1913,0.1913,0.1913,0.191,0.191,0.191,0,0,0,0,0,0,0,0,0,0,0,0,0,0.1915,0.1917,0.1911,0.1912,0.1913,0.191,0.191,0.191,0.1912,0.1913,0.1913,0.1913,0.191,0.191,0.191,0.1905,0,0,0.1909,0.1909,0,0,0,0,0,0,0,0,0.1915,0.1915,0.1912,0.1912,0.1912,0.1911,0.1911,0.1908,0.1912,0.1912,0.1913,0.1913,0.191,0.191,0.1909,0.1905,0.1905,0.1909,0.1909,0.1909,0.1908,0,0,0,0,0,0,0,0.1915,0.1915,0.191,0.1912,0.1912,0.1913,0.1913,0.191,0.191,0.1912,0.1913,0.1912,0.191,0.191,0.1909,0.1905,0.1909,0.1909,0.1908,0.1908,0.1899,0.1899,0,0,0,0,0,0,0.1915,0.1915,0.1911,0.191,0.1914,0.1913,0.1913,0.1912,0.1911,0.1911,0.1912,0.1913,0.191,0.191,0.1909,0.1905,0.1909,0.1908,0.1908,0.1899,0.1899,0.1899,0,0,0,0,0,0,0.1916,0.1915,0.1911,0.1913,0.1912,0.1913,0.1911,0.1911,0.1911,0.191,0.191,0.1911,0.191,0.191,0.1907,0.1905,0.1908,0.1908,0.1899,0.1899,0.1899,0.1897,0,0,0,0,0,0,0.1916,0.1915,0.1913,0.1913,0.1912,0.1908,0.1911,0.1911,0.191,0.1911,0.191,0.191,0.191,0.1907,0.1906,0.1905,0.1908,0.1899,0.1899,0.1899,0.1897,0.1896,0.1896,0,0,0,0,0,0.1916,0.1911,0.1913,0.1912,0.191,0.1908,0.1907,0.1908,0.191,0.1908,0.1909,0.191,0.1906,0.1907,0.1906,0.1904,0.19,0.1899,0.1899,0.1897,0.1896,0.1896,0,0,0,0,0,0,0.191,0.1911,0.1913,0.1908,0.1908,0.1908,0.1906,0.1907,0.1906,0.1907,0.1908,0.1907,0.1905,0.1904,0.1906,0.1901,0.1903,0.1903,0.1902,0.1901,0.1901,0.1901,0.1908,0,0,0,0,0,0.1909,0.1907,0.1908,0.1904,0.1904,0.1905,0.1904,0.1905,0.1905,0.1905,0.1904,0.1904,0.1903,0.1902,0.1901,0.1897,0.1898,0.1896,0.1895,0.1895,0.1895,0.1895,0.1894,0.1898,0.1898,0.1898,0,0,0.1905,0.1905,0.1904,0.1903,0.1903,0.1902,0.1905,0.1903,0.1902,0.1904,0.1902,0.1902,0.1902,0.1899,0.1898,0.1899,0.1894,0.1895,0.1895,0.1894,0.1895,0.1894,0.1894,0.1898,0.1898,0.1898,0,0,0.1898,0.1897,0.1895,0.1896,0.1896,0.1897,0.1897,0.1897,0.1898,0.1896,0.1898,0.1897,0.1895,0.1895,0.1895,0.1891,0.1892,0.189,0.1888,0.1888,0.1888,0.1888,0.1888,0.1887,0.189,0.189,0.189,0,0.1893,0.1891,0.1893,0.1892,0.1892,0.1895,0.1893,0.1894,0.1893,0.1893,0.1895,0.1893,0.1893,0.1891,0.1891,0.189,0.189,0.189,0.1888,0.1888,0.1888,0.1887,0.1887,0.189,0.189,0.189,0.189,0,0.1886,0.1885,0.1883,0.1884,0.1884,0.1882,0.1885,0.1884,0.1886,0.1888,0.1887,0.1887,0.1887,0.1887,0.1887,0.1886,0.1887,0.1888,0.1889,0.1887,0.1887,0.1887,0.189,0.189,0.189,0.189,0,0,0.1874,0.1878,0.1877,0.1879,0.1881,0.188,0.1879,0.188,0.188,0.1881,0.1881,0.188,0.1882,0.1882,0.1883,0.1883,0.1882,0.1884,0.1885,0.1885,0.1882,0.1881,0.1881,0.1883,0.1883,0.1883,0.1882,0,0.1867,0.1866,0.187,0.1868,0.1868,0.1872,0.1872,0.1873,0.1875,0.1876,0.1878,0.1878,0.1879,0.188,0.188,0.1882,0.1881,0.1882,0.1884,0.1884,0.1884,0.1881,0.1879,0.1879,0.1882,0.1882,0.1882,0,0.186,0.1861,0.186,0.1864,0.1864,0.1864,0.1866,0.1866,0.1869,0.187,0.1871,0.1874,0.1874,0.1876,0.1877,0.1878,0.1879,0.188,0.188,0.1881,0.1883,0.1882,0.1878,0.1878,0.1882,0.1882,0.1882,0,0.1852,0.1854,0.1854,0.1855,0.1859,0.1859,0.1861,0.1864,0.1865,0.1867,0.1868,0.187,0.1871,0.1872,0.1876,0.1876,0.1877,0.1879,0.1879,0.1879,0.1879,0.1879,0.1876,0.1878,0.1878,0.1878,0.1878,0,0.1845,0.1844,0.1851,0.1851,0.1851,0.1855,0.1855,0.1857,0.186,0.1861,0.1865,0.1866,0.187,0.1872,0.1874,0.1876,0.1876,0.1878,0.1878,0.1878,0.1877,0.1878,0.1879,0.1878,0.1878,0.1878,0.1878,0,0.1836,0.1841,0.1841,0.1846,0.1848,0.1848,0.1852,0.1853,0.1856,0.1857,0.1858,0.1862,0.1865,0.1869,0.1872,0.1874,0.1875,0.1876,0.1874,0.1875,0.1875,0.1876,0.1873,0.1874,0.1876,0.1876,0.1875,0,0.1832,0.1832,0.1837,0.1839,0.1841,0.1843,0.1845,0.1849,0.1851,0.1855,0.1856,0.1859,0.1862,0.1866,0.1869,0.1872,0.1874,0.1873,0.1874,0.1874,0.1875,0.1875,0.1876,0.1872,0.1872,0.1872,0.1872,0,0.1823,0.1826,0.1829,0.1833,0.1835,0.1838,0.1841,0.1842,0.1848,0.185,0.1853,0.1855,0.1859,0.1863,0.1867,0.1869,0.1872,0.1872,0.1873,0.1872,0.1871,0.1873,0.1874,0.1872,0.1872,0.1872,0.1872,0.1872,0.1817,0.1818,0.1823,0.1826,0.183,0.1833,0.1835,0.1839,0.1842,0.1846,0.1849,0.1852,0.1857,0.1863,0.1866,0.1869,0.187,0.187,0.187,0.187,0.1871,0.1871,0.1869,0.1869,0.1869,0.1869,0.1869,0,0.181,0.1814,0.1817,0.1822,0.1825,0.1829,0.1833,0.1836,0.1839,0.1843,0.1846,0.1851,0.1855,0.186,0.1865,0.1866,0.1868,0.1867,0.1867,0.1868,0.1869,0.1868,0.1866,0.1866,0.1866,0.1866,0.1866,0.1866,0.1807,0.1809,0.1813,0.1818,0.1822,0.1826,0.1828,0.1832,0.1836,0.1841,0.1845,0.1848,0.1853,0.1859,0.1863,0.1864,0.1866,0.1866,0.1867,0.1868,0.1868,0.1868,0.1868,0.1866,0.1866,0.1867,0.1867,0.1867]}]]